[[{"header":{"parameterUnit":"m.s-1","parameterCategory":1,"la1":30.2991,"la2":30.254,"lo1":-89.0895,"lo2":-89.0444,"dy":0.0017,"dx":0.0017,"nx":28,"ny":28,"refTime":"2024-05-26T21:00:00:Z","depth":0,"parameterNumber":2,"parameterNumberName":"U-component_of_WINDS"},"data":[0,0,0,0,0,0,0,0,0,0,0,0,0,0,0,0,0,0,0,0,0,0,0,0,0,0,0,0,0,0,0,0,0,0,0,0,0,0,0,0,0,0,0,0,0,0,0,0,0,0,0,0,0,0,0,0,0,0,-0.1801,-0.1802,0,-0.1874,-0.1875,-0.1875,-0.1907,-0.1907,-0.1907,-0.1907,-0.1983,-0.1985,-0.1987,0,0,0,0,0,0,0,0,0,0,0,0,0,-0.1692,-0.1694,-0.1801,-0.1802,-0.1803,-0.1874,-0.1875,-0.1876,-0.1907,-0.1907,-0.1907,-0.1907,-0.1982,-0.1985,-0.1987,0,0,0,0,0,0,0,0,0,0,0,0,0,-0.1749,-0.1694,-0.1801,-0.1827,-0.183,-0.1873,-0.1875,-0.1876,-0.1907,-0.1907,-0.1907,-0.1907,-0.1982,-0.1985,-0.1988,-0.2011,0,0,-0.1998,-0.1999,0,0,0,0,0,0,0,0,-0.1746,-0.1753,-0.1822,-0.1825,-0.1829,-0.1881,-0.1864,-0.1921,-0.1908,-0.1878,-0.1907,-0.1907,-0.1949,-0.1955,-0.1969,-0.2014,-0.2018,-0.1998,-0.2,-0.2001,-0.2002,0,0,0,0,0,0,0,-0.1742,-0.175,-0.183,-0.1823,-0.1827,-0.1836,-0.1844,-0.1875,-0.1914,-0.1881,-0.1883,-0.1891,-0.1951,-0.1966,-0.1971,-0.2019,-0.1998,-0.2001,-0.2003,-0.2004,-0.2088,-0.2088,0,0,0,0,0,0,-0.1733,-0.1747,-0.1827,-0.1832,-0.1786,-0.1838,-0.1847,-0.1865,-0.1914,-0.1921,-0.1891,-0.1893,-0.1961,-0.1968,-0.1974,-0.2005,-0.2001,-0.2004,-0.2006,-0.2088,-0.2088,-0.2088,0,0,0,0,0,0,-0.1731,-0.174,-0.1824,-0.179,-0.1802,-0.184,-0.186,-0.1866,-0.1881,-0.1922,-0.1929,-0.1899,-0.1961,-0.197,-0.2002,-0.2008,-0.2006,-0.2008,-0.2087,-0.2088,-0.2088,-0.2067,0,0,0,0,0,0,-0.1728,-0.1739,-0.1748,-0.179,-0.1803,-0.185,-0.186,-0.1868,-0.1886,-0.1889,-0.1931,-0.1938,-0.1962,-0.1997,-0.2005,-0.2013,-0.2011,-0.2087,-0.2087,-0.2088,-0.2067,-0.2066,-0.2066,0,0,0,0,0,-0.1724,-0.1739,-0.1748,-0.1757,-0.1814,-0.185,-0.1858,-0.1884,-0.1887,-0.1896,-0.1922,-0.1937,-0.2006,-0.2,-0.2009,-0.2018,-0.2086,-0.2087,-0.2088,-0.2067,-0.2067,-0.2066,0,0,0,0,0,0,-0.1696,-0.1745,-0.1755,-0.1784,-0.1813,-0.1855,-0.1868,-0.1882,-0.1911,-0.1912,-0.1944,-0.1953,-0.1983,-0.2004,-0.1996,-0.2044,-0.2048,-0.205,-0.2029,-0.2028,-0.2028,-0.2022,-0.2014,0,0,0,0,0,-0.1694,-0.1718,-0.1759,-0.1781,-0.1795,-0.1829,-0.1845,-0.1863,-0.1894,-0.1907,-0.1935,-0.1965,-0.1994,-0.2012,-0.2041,-0.207,-0.2081,-0.2081,-0.2081,-0.208,-0.2082,-0.21,-0.2101,-0.2091,-0.2091,-0.2091,0,0,-0.1688,-0.1718,-0.1731,-0.1776,-0.18,-0.1826,-0.1839,-0.1865,-0.1884,-0.1911,-0.1943,-0.1965,-0.2001,-0.2032,-0.2047,-0.205,-0.2087,-0.2081,-0.208,-0.2083,-0.2101,-0.2102,-0.2103,-0.2091,-0.2091,-0.2091,0,0,-0.1692,-0.1716,-0.1737,-0.1761,-0.1798,-0.1821,-0.1826,-0.1867,-0.1882,-0.1915,-0.1936,-0.196,-0.2008,-0.2034,-0.2053,-0.2067,-0.2082,-0.2076,-0.2073,-0.209,-0.2091,-0.2092,-0.2098,-0.21,-0.2077,-0.2077,-0.2077,0,-0.1681,-0.1719,-0.1746,-0.1772,-0.1791,-0.1817,-0.1839,-0.1861,-0.1906,-0.1919,-0.1922,-0.1984,-0.201,-0.2048,-0.2052,-0.2066,-0.2074,-0.2071,-0.2089,-0.209,-0.2091,-0.2097,-0.2099,-0.2076,-0.2076,-0.2077,-0.2077,0,-0.1704,-0.1731,-0.1744,-0.1785,-0.1807,-0.183,-0.1862,-0.1881,-0.1897,-0.192,-0.1954,-0.1986,-0.2022,-0.2032,-0.2049,-0.2073,-0.2074,-0.2082,-0.2087,-0.2091,-0.2097,-0.21,-0.2075,-0.2075,-0.2076,-0.2076,0,0,-0.1692,-0.1749,-0.1754,-0.1773,-0.1816,-0.1838,-0.1863,-0.1898,-0.1914,-0.1944,-0.1967,-0.2008,-0.2016,-0.2038,-0.2058,-0.2073,-0.2084,-0.208,-0.2081,-0.208,-0.2114,-0.2108,-0.211,-0.2093,-0.2094,-0.2094,-0.2111,0,-0.1702,-0.1748,-0.1774,-0.1809,-0.1835,-0.186,-0.1882,-0.1911,-0.1934,-0.196,-0.1985,-0.2014,-0.2022,-0.2035,-0.2051,-0.2079,-0.2091,-0.2078,-0.2116,-0.2117,-0.2107,-0.2113,-0.2106,-0.212,-0.2114,-0.2114,-0.2114,0,-0.1719,-0.1748,-0.1786,-0.1827,-0.1839,-0.1859,-0.1894,-0.1918,-0.1952,-0.1967,-0.1992,-0.2012,-0.2041,-0.2043,-0.2084,-0.2075,-0.2092,-0.2108,-0.2109,-0.2114,-0.2116,-0.2119,-0.2125,-0.2128,-0.2118,-0.2118,-0.2118,0,-0.1707,-0.1756,-0.1786,-0.1802,-0.185,-0.1864,-0.1885,-0.1919,-0.1938,-0.1969,-0.1983,-0.2017,-0.2036,-0.2062,-0.2091,-0.2089,-0.2129,-0.2134,-0.2144,-0.2143,-0.2151,-0.215,-0.2161,-0.2161,-0.2161,-0.2161,-0.2161,0,-0.1715,-0.1738,-0.1781,-0.1799,-0.1826,-0.1856,-0.1882,-0.1905,-0.1935,-0.1959,-0.1983,-0.2005,-0.2041,-0.2068,-0.2091,-0.2122,-0.213,-0.2144,-0.215,-0.2142,-0.2141,-0.2154,-0.2154,-0.2162,-0.2162,-0.2161,-0.2161,0,-0.1707,-0.1736,-0.177,-0.1813,-0.1825,-0.1843,-0.188,-0.1899,-0.1923,-0.1953,-0.1962,-0.2,-0.2033,-0.2064,-0.2108,-0.2124,-0.2155,-0.2163,-0.2144,-0.2147,-0.2155,-0.2154,-0.2176,-0.2181,-0.2177,-0.2177,-0.2177,0,-0.171,-0.1728,-0.1773,-0.1791,-0.1811,-0.1839,-0.186,-0.1891,-0.1912,-0.1953,-0.1967,-0.2002,-0.2031,-0.2083,-0.2115,-0.2149,-0.2158,-0.2163,-0.2163,-0.2156,-0.2159,-0.2158,-0.2161,-0.2163,-0.2163,-0.2163,-0.2162,0,-0.1714,-0.1728,-0.1756,-0.179,-0.1814,-0.1842,-0.1872,-0.1885,-0.1922,-0.1944,-0.1978,-0.2001,-0.2046,-0.2081,-0.2119,-0.2142,-0.2159,-0.2162,-0.2167,-0.2159,-0.2148,-0.2155,-0.2143,-0.2162,-0.2162,-0.2162,-0.2162,-0.2162,-0.1712,-0.173,-0.1764,-0.1796,-0.1821,-0.1848,-0.1868,-0.1895,-0.1924,-0.1963,-0.198,-0.2015,-0.205,-0.2103,-0.2125,-0.2154,-0.2157,-0.2163,-0.2165,-0.2166,-0.2165,-0.2143,-0.2161,-0.2161,-0.2161,-0.2161,-0.2161,0,-0.1717,-0.1741,-0.177,-0.181,-0.1835,-0.1848,-0.1882,-0.1902,-0.1932,-0.1963,-0.1992,-0.2032,-0.2066,-0.2101,-0.2137,-0.2153,-0.2162,-0.2162,-0.2161,-0.2166,-0.2159,-0.2152,-0.2154,-0.2154,-0.2154,-0.2154,-0.2154,-0.2154,-0.1723,-0.1754,-0.1773,-0.1817,-0.1841,-0.1875,-0.1893,-0.1918,-0.1944,-0.1987,-0.2015,-0.2038,-0.2071,-0.211,-0.2142,-0.2152,-0.2164,-0.2162,-0.2174,-0.2166,-0.2167,-0.2167,-0.216,-0.2164,-0.2164,-0.2179,-0.2179,-0.2179]},{"header":{"parameterUnit":"m.s-1","parameterCategory":1,"la1":30.2991,"la2":30.254,"lo1":-89.0895,"lo2":-89.0444,"dy":0.0017,"dx":0.0017,"nx":28,"ny":28,"refTime":"2024-05-26T21:00:00:Z","depth":0,"parameterNumber":3,"parameterNumberName":"V-component_of_WINDS"},"data":[0,0,0,0,0,0,0,0,0,0,0,0,0,0,0,0,0,0,0,0,0,0,0,0,0,0,0,0,0,0,0,0,0,0,0,0,0,0,0,0,0,0,0,0,0,0,0,0,0,0,0,0,0,0,0,0,0,0,6.9849,6.9849,0,6.9877,6.9877,6.9877,6.9821,6.9819,6.9817,6.9815,6.9839,6.9842,6.9844,0,0,0,0,0,0,0,0,0,0,0,0,0,6.9744,6.9746,6.9849,6.9849,6.985,6.9877,6.9877,6.9877,6.9821,6.9819,6.9817,6.9815,6.9839,6.9841,6.9844,0,0,0,0,0,0,0,0,0,0,0,0,0,6.9782,6.9747,6.9849,6.9825,6.9823,6.9877,6.9877,6.9878,6.9822,6.9819,6.9816,6.9813,6.9838,6.9841,6.9845,6.9921,0,0,6.9855,6.9857,0,0,0,0,0,0,0,0,6.978,6.9786,6.9828,6.9827,6.9825,6.9843,6.9849,6.9892,6.9822,6.9822,6.9815,6.9812,6.9842,6.9845,6.9856,6.9923,6.9924,6.9856,6.9858,6.9859,6.986,0,0,0,0,0,0,0,6.9777,6.9784,6.986,6.9829,6.9827,6.9812,6.9814,6.9857,6.9847,6.9822,6.9818,6.9822,6.9841,6.9853,6.9857,6.9924,6.9856,6.9859,6.9861,6.9862,7.0055,7.0058,0,0,0,0,0,0,6.9778,6.9783,6.9859,6.9861,6.9795,6.9816,6.9818,6.984,6.9847,6.9845,6.9824,6.9819,6.9849,6.9853,6.9857,6.9948,6.9859,6.9863,6.9865,7.0052,7.0056,7.0059,0,0,0,0,0,0,6.9776,6.9786,6.9858,6.9821,6.9829,6.9821,6.9845,6.9842,6.9854,6.9849,6.9846,6.9839,6.9846,6.9852,6.9906,6.9948,6.9864,6.9867,7.0049,7.0053,7.0057,7.013,0,0,0,0,0,0,6.9774,6.9785,6.9815,6.9822,6.9831,6.9908,6.9847,6.9844,6.9861,6.9854,6.9862,6.986,6.9845,6.9901,6.991,6.9951,6.987,7.0045,7.0051,7.0056,7.0124,7.0136,7.0147,0,0,0,0,0,6.977,6.9833,6.9817,6.9826,6.9868,6.991,6.9915,6.9898,6.9864,6.9894,6.989,6.986,6.9942,6.9907,6.9916,6.996,7.0042,7.0049,7.0056,7.0119,7.0134,7.0147,0,0,0,0,0,0,6.9829,6.9834,6.9815,6.9883,6.9897,6.9901,6.9937,6.9914,6.9937,6.993,6.9905,6.9908,6.9966,6.9968,6.9929,7.0035,6.9986,6.9995,7.0031,7.0046,7.0057,7.0055,6.9873,0,0,0,0,0,6.9851,6.9886,6.9887,6.9947,6.9955,6.9945,6.9963,6.9948,6.9961,6.9966,6.9966,6.9979,7.0008,7.0027,7.0053,7.0124,7.0125,7.0158,7.017,7.018,7.0187,7.0226,7.0241,7.0081,7.0081,7.0081,0,0,6.9894,6.9901,6.9924,6.9959,6.9968,7.0004,6.995,6.999,7.0016,6.9971,7.0023,7.0024,7.0036,7.01,7.0128,7.0103,7.0232,7.0188,7.0196,7.0198,7.0234,7.0249,7.0263,7.0086,7.0085,7.0084,0,0,6.9992,7.0001,7.0052,7.0063,7.0078,7.0072,7.0084,7.0092,7.0092,7.0143,7.0111,7.0141,7.0191,7.0201,7.0213,7.0317,7.029,7.0326,7.0387,7.0425,7.0437,7.0448,7.0485,7.0499,7.0334,7.0335,7.0335,0,7.0044,7.0098,7.0081,7.0124,7.014,7.0103,7.0154,7.0165,7.0187,7.0199,7.0172,7.0235,7.024,7.0306,7.0331,7.0342,7.0355,7.0325,7.0437,7.0448,7.0458,7.0493,7.0507,7.0339,7.0338,7.0338,7.0337,0,7.0161,7.0199,7.0239,7.0264,7.0284,7.0331,7.0319,7.0342,7.0326,7.0323,7.0376,7.0382,7.0409,7.0423,7.0407,7.0487,7.0472,7.0442,7.0392,7.0478,7.051,7.0524,7.0345,7.0343,7.0342,7.0341,0,0,7.0295,7.0312,7.0327,7.0338,7.0353,7.0382,7.0427,7.0455,7.0475,7.0492,7.0529,7.0573,7.0546,7.0559,7.0544,7.0578,7.066,7.0543,7.0543,7.0564,7.0748,7.0771,7.0786,7.0643,7.0645,7.0647,7.0747,0,7.0392,7.0472,7.0458,7.0535,7.057,7.0537,7.0576,7.0589,7.0587,7.0616,7.0613,7.0645,7.0606,7.0614,7.0646,7.0643,7.0696,7.0636,7.0676,7.0677,7.0673,7.0803,7.0827,7.0921,7.076,7.0762,7.0763,0,7.0516,7.054,7.0621,7.0632,7.0646,7.0682,7.0707,7.0736,7.075,7.0746,7.0763,7.0742,7.0786,7.0737,7.0798,7.0757,7.0772,7.0774,7.0777,7.0779,7.0725,7.0809,7.095,7.0964,7.0783,7.0782,7.078,0,7.0606,7.0658,7.0714,7.0724,7.0739,7.0765,7.0772,7.0783,7.0802,7.0824,7.0835,7.0861,7.0876,7.0896,7.0883,7.0849,7.0945,7.0895,7.0943,7.0943,7.0964,7.0962,7.1109,7.0975,7.0975,7.0974,7.0974,0,7.0715,7.0766,7.0755,7.0789,7.0844,7.0828,7.0884,7.0886,7.0897,7.0931,7.0903,7.0934,7.0916,7.0945,7.0935,7.0987,7.0993,7.0991,7.0987,7.0993,7.0994,7.1002,7.0995,7.0978,7.0977,7.0977,7.0976,0,7.0824,7.0819,7.0877,7.0887,7.0891,7.0931,7.0939,7.097,7.0967,7.101,7.1019,7.1013,7.1047,7.1037,7.1072,7.1066,7.1131,7.1119,7.1127,7.1124,7.1172,7.1167,7.1329,7.1349,7.1202,7.1204,7.1205,0,7.0894,7.0932,7.0947,7.0969,7.0979,7.1013,7.1032,7.1018,7.1039,7.1059,7.1088,7.112,7.1145,7.12,7.1199,7.1226,7.1215,7.127,7.1218,7.1223,7.1215,7.1213,7.1217,7.1279,7.1281,7.1282,7.1284,0,7.1018,7.1014,7.1044,7.1074,7.1099,7.1121,7.114,7.1159,7.1146,7.1171,7.1207,7.1226,7.1264,7.1296,7.1321,7.1327,7.1303,7.13,7.1312,7.1318,7.1321,7.132,7.1154,7.1296,7.1295,7.1294,7.1293,7.1293,7.1109,7.1143,7.1159,7.1194,7.1208,7.1227,7.1257,7.1259,7.1289,7.132,7.131,7.1351,7.1364,7.1396,7.1406,7.1436,7.1415,7.1433,7.1437,7.1442,7.1448,7.1317,7.1441,7.1441,7.144,7.144,7.144,0,7.1232,7.1242,7.1274,7.1304,7.1331,7.1309,7.133,7.1354,7.139,7.1406,7.1432,7.1473,7.1504,7.1506,7.1535,7.156,7.155,7.1568,7.1565,7.1567,7.1465,7.1452,7.1576,7.1576,7.1576,7.1576,7.1576,7.1576,7.13,7.1355,7.1354,7.1416,7.1424,7.1466,7.1479,7.1497,7.151,7.1558,7.1584,7.1586,7.1596,7.1626,7.1654,7.1654,7.1665,7.1688,7.1683,7.1588,7.1574,7.1561,7.1548,7.169,7.1691,7.1782,7.1783,7.1784]}]]